| time (UTC) | temp C | wind direction | speed KPH | gust KPH | rain 1hr cm | rain 24hr cm | rain mn cm | humidity % | barometer mb |
| 20260507000220 | 12 | 270 | 0.0 | 3.2 | 0.00 | 0.46 | 0.00 | 99 | 1010.3 |
| 20260506235323 | 12 | 360 | 0.0 | 3.2 | 0.00 | 0.46 | 0.00 | 99 | 1010.2 |
| 20260506234420 | 12 | 0 | 0.0 | 0.0 | 0.00 | 0.46 | 0.00 | 99 | 1010.2 |
| 20260506233310 | 13 | 360 | 0.0 | 3.2 | 0.00 | 0.46 | 0.00 | 99 | 1010.1 |
| 20260506232619 | 13 | 20 | 0.0 | 4.8 | 0.00 | 0.46 | 0.00 | 99 | 1010.1 |
| 20260506231722 | 13 | 13 | 3.2 | 6.4 | 0.00 | 0.46 | 0.00 | 99 | 1010.1 |
| 20260506230824 | 13 | 8 | 1.6 | 6.4 | 0.00 | 0.46 | 0.00 | 99 | 1010.1 |
| 20260506225922 | 13 | 2 | 1.6 | 4.8 | 0.00 | 0.46 | 0.00 | 99 | 1010.2 |
| 20260506225024 | 13 | 357 | 0.0 | 4.8 | 0.00 | 0.46 | 0.00 | 99 | 1010.0 |
| 20260506224121 | 13 | 0 | 0.0 | 0.0 | 0.00 | 0.46 | 0.00 | 98 | 1010.1 |
| 20260506223010 | 13 | 0 | 0.0 | 0.0 | 0.00 | 0.46 | 0.00 | 98 | 1010.2 |
| 20260506222321 | 13 | 0 | 0.0 | 0.0 | 0.00 | 0.46 | 0.00 | 98 | 1010.3 |
| 20260506221211 | 13 | 14 | 0.0 | 6.4 | 0.00 | 0.46 | 0.00 | 98 | 1010.1 |
| 20260506220310 | 13 | 16 | 1.6 | 6.4 | 0.00 | 0.46 | 0.00 | 97 | 1010.0 |
| 20260506215623 | 13 | 360 | 1.6 | 6.4 | 0.00 | 0.46 | 0.46 | 98 | 1010.1 |
| 20260506214720 | 13 | 9 | 0.0 | 4.8 | 0.00 | 0.46 | 0.46 | 97 | 1010.1 |
| 20260506213610 | 13 | 358 | 1.6 | 4.8 | 0.00 | 0.46 | 0.46 | 97 | 1010.0 |
| 20260506212920 | 13 | 2 | 0.0 | 6.4 | 0.00 | 0.46 | 0.46 | 97 | 1010.1 |
| 20260506211810 | 14 | 349 | 0.0 | 3.2 | 0.00 | 0.46 | 0.46 | 96 | 1010.1 |
| 20260506211120 | 14 | 45 | 0.0 | 3.2 | 0.00 | 0.46 | 0.46 | 96 | 1010.1 |
| 20260506210222 | 14 | 19 | 0.0 | 6.4 | 0.00 | 0.46 | 0.46 | 96 | 1010.0 |
| 20260506205110 | 14 | 19 | 0.0 | 3.2 | 0.00 | 0.46 | 0.46 | 96 | 1009.8 |
| 20260506204422 | 14 | 30 | 0.0 | 3.2 | 0.00 | 0.46 | 0.46 | 96 | 1010.1 |
| 20260506203310 | 14 | 22 | 1.6 | 4.8 | 0.00 | 0.46 | 0.46 | 95 | 1010.0 |
| 20260506202622 | 14 | 25 | 0.0 | 4.8 | 0.00 | 0.46 | 0.46 | 95 | 1009.9 |
| 20260506201510 | 14 | 20 | 0.0 | 4.8 | 0.00 | 0.46 | 0.46 | 95 | 1009.9 |
| 20260506200610 | 15 | 43 | 0.0 | 3.2 | 0.00 | 0.46 | 0.46 | 95 | 1009.8 |
| 20260506195923 | 15 | 315 | 0.0 | 1.6 | 0.00 | 0.46 | 0.46 | 95 | 1009.8 |
| 20260506194810 | 15 | 0 | 0.0 | 0.0 | 0.00 | 0.46 | 0.46 | 95 | 1009.7 |
| 20260506193910 | 15 | 0 | 0.0 | 0.0 | 0.00 | 0.46 | 0.46 | 94 | 1009.5 |
| 20260506193220 | 15 | 33 | 0.0 | 4.8 | 0.00 | 0.46 | 0.46 | 94 | 1009.5 |
| 20260506192323 | 15 | 13 | 1.6 | 6.4 | 0.00 | 0.46 | 0.46 | 94 | 1009.4 |
| 20260506191210 | 15 | 39 | 3.2 | 6.4 | 0.00 | 0.46 | 0.46 | 94 | 1009.4 |
| 20260506190524 | 15 | 27 | 3.2 | 6.4 | 0.00 | 0.46 | 0.46 | 94 | 1009.3 |
| 20260506185410 | 15 | 9 | 1.6 | 6.4 | 0.00 | 0.46 | 0.46 | 94 | 1009.3 |
| 20260506184722 | 15 | 14 | 0.0 | 6.4 | 0.00 | 0.46 | 0.46 | 94 | 1009.3 |
| 20260506183819 | 15 | 7 | 1.6 | 6.4 | 0.00 | 0.46 | 0.46 | 94 | 1009.1 |
| 20260506182922 | 15 | 2 | 3.2 | 8.0 | 0.00 | 0.46 | 0.46 | 94 | 1009.1 |
| 20260506181811 | 15 | 7 | 1.6 | 6.4 | 0.00 | 0.46 | 0.46 | 94 | 1008.8 |
| 20260506181122 | 15 | 15 | 1.6 | 6.4 | 0.00 | 0.46 | 0.46 | 93 | 1009.1 |
| 20260506180224 | 15 | 4 | 1.6 | 6.4 | 0.00 | 0.46 | 0.46 | 93 | 1008.9 |
| 20260506175321 | 16 | 347 | 0.0 | 4.8 | 0.00 | 0.46 | 0.46 | 93 | 1008.7 |
| 20260506174210 | 16 | 0 | 0.0 | 0.0 | 0.00 | 0.46 | 0.46 | 93 | 1008.7 |
| 20260506173521 | 16 | 0 | 0.0 | 0.0 | 0.00 | 0.46 | 0.46 | 93 | 1008.7 |
| 20260506172411 | 16 | 360 | 0.0 | 1.6 | 0.00 | 0.46 | 0.46 | 92 | 1008.8 |
| 20260506171721 | 16 | 0 | 0.0 | 0.0 | 0.00 | 0.46 | 0.46 | 92 | 1008.6 |
| 20260506170611 | 16 | 97 | 0.0 | 4.8 | 0.00 | 0.46 | 0.46 | 92 | 1008.7 |
| 20260506165710 | 16 | 110 | 0.0 | 6.4 | 0.00 | 0.46 | 0.46 | 92 | 1008.6 |
| 20260506164810 | 16 | 85 | 0.0 | 6.4 | 0.00 | 0.48 | 0.46 | 92 | 1008.6 |
| 20260506163910 | 16 | 101 | 0.0 | 4.8 | 0.00 | 0.48 | 0.46 | 93 | 1008.7 |
| 20260506163222 | 16 | 120 | 0.0 | 4.8 | 0.00 | 0.48 | 0.46 | 93 | 1008.8 |
| 20260506162110 | 16 | 175 | 0.0 | 6.4 | 0.00 | 0.48 | 0.46 | 94 | 1008.9 |
| 20260506161422 | 16 | 0 | 0.0 | 0.0 | 0.00 | 0.48 | 0.46 | 95 | 1008.8 |
| 20260506160310 | 16 | 0 | 0.0 | 0.0 | 0.00 | 0.48 | 0.46 | 95 | 1008.8 |
| 20260506155410 | 15 | 161 | 0.0 | 6.4 | 0.00 | 0.48 | 0.46 | 95 | 1008.7 |
| 20260506154510 | 16 | 208 | 0.0 | 6.4 | 0.00 | 0.48 | 0.46 | 96 | 1008.6 |
| 20260506153821 | 16 | 135 | 0.0 | 3.2 | 0.00 | 0.48 | 0.46 | 96 | 1008.5 |
| 20260506152924 | 15 | 98 | 1.6 | 12.9 | 0.00 | 0.51 | 0.46 | 96 | 1008.6 |
| 20260506152021 | 15 | 96 | 0.0 | 6.4 | 0.00 | 0.53 | 0.46 | 96 | 1008.6 |
| 20260506150910 | 16 | 20 | 1.6 | 4.8 | 0.05 | 0.53 | 0.46 | 96 | 1008.7 |
| 20260506150221 | 16 | 40 | 1.6 | 6.4 | 0.13 | 0.53 | 0.46 | 96 | 1008.7 |
| 20260506145110 | 15 | 31 | 0.0 | 6.4 | 0.18 | 0.53 | 0.46 | 96 | 1008.7 |
| 20260506144210 | 15 | 71 | 0.0 | 6.4 | 0.28 | 0.56 | 0.46 | 95 | 1008.7 |
| 20260506143523 | 15 | 83 | 1.6 | 9.7 | 0.33 | 0.56 | 0.46 | 95 | 1008.6 |
| 20260506142620 | 15 | 88 | 1.6 | 6.4 | 0.38 | 0.56 | 0.46 | 94 | 1008.7 |
| 20260506141510 | 15 | 95 | 1.6 | 8.0 | 0.36 | 0.56 | 0.43 | 92 | 1008.9 |
| 20260506140820 | 16 | 112 | 1.6 | 4.8 | 0.28 | 0.48 | 0.33 | 90 | 1009.1 |
| 20260506135922 | 16 | 124 | 0.0 | 4.8 | 0.28 | 0.48 | 0.33 | 90 | 1009.2 |
| 20260506135019 | 16 | 135 | 0.0 | 3.2 | 0.18 | 0.38 | 0.23 | 88 | 1009.4 |
| 20260506133910 | 16 | 138 | 0.0 | 9.7 | 0.10 | 0.30 | 0.15 | 86 | 1009.4 |
| 20260506133224 | 16 | 149 | 0.0 | 6.4 | 0.03 | 0.23 | 0.10 | 85 | 1009.3 |
| 20260506132322 | 16 | 135 | 1.6 | 9.7 | 0.00 | 0.20 | 0.05 | 83 | 1009.3 |
| 20260506131424 | 17 | 125 | 1.6 | 9.7 | 0.00 | 0.20 | 0.05 | 83 | 1009.4 |
| 20260506130310 | 17 | 152 | 1.6 | 8.0 | 0.00 | 0.20 | 0.05 | 83 | 1009.5 |
| 20260506125410 | 17 | 151 | 3.2 | 19.3 | 0.00 | 0.20 | 0.05 | 82 | 1009.4 |
| 20260506124721 | 17 | 143 | 1.6 | 19.3 | 0.00 | 0.23 | 0.05 | 82 | 1009.5 |
| 20260506123610 | 17 | 153 | 3.2 | 12.9 | 0.00 | 0.28 | 0.05 | 83 | 1009.5 |
| 20260506122921 | 17 | 135 | 3.2 | 11.3 | 0.00 | 0.30 | 0.05 | 86 | 1009.5 |
| 20260506122023 | 17 | 133 | 1.6 | 9.7 | 0.00 | 0.30 | 0.05 | 89 | 1009.5 |
| 20260506120910 | 16 | 180 | 0.0 | 9.7 | 0.03 | 0.33 | 0.05 | 92 | 1009.7 |
| 20260506120223 | 16 | 168 | 1.6 | 6.4 | 0.03 | 0.33 | 0.05 | 91 | 1009.7 |
| 20260506115110 | 16 | 110 | 0.0 | 6.4 | 0.03 | 0.33 | 0.05 | 92 | 1009.9 |
| 20260506114210 | 16 | 96 | 0.0 | 6.4 | 0.03 | 0.33 | 0.05 | 92 | 1009.8 |
| 20260506113520 | 16 | 147 | 0.0 | 3.2 | 0.03 | 0.36 | 0.05 | 93 | 1009.9 |
| 20260506112622 | 16 | 180 | 0.0 | 1.6 | 0.03 | 0.38 | 0.05 | 92 | 1010.0 |
| 20260506111510 | 15 | 225 | 0.0 | 3.2 | 0.03 | 0.43 | 0.05 | 92 | 1010.1 |
| 20260506110610 | 15 | 225 | 0.0 | 4.8 | 0.00 | 0.43 | 0.03 | 91 | 1010.3 |
| 20260506105710 | 15 | 218 | 0.0 | 8.0 | 0.00 | 0.43 | 0.03 | 90 | 1010.3 |
| 20260506105021 | 15 | 192 | 1.6 | 8.0 | 0.03 | 0.43 | 0.03 | 89 | 1010.4 |
| 20260506103910 | 15 | 163 | 0.0 | 4.8 | 0.03 | 0.43 | 0.03 | 89 | 1010.4 |
| 20260506103221 | 15 | 159 | 0.0 | 6.4 | 0.03 | 0.43 | 0.03 | 89 | 1010.4 |
| 20260506102323 | 15 | 152 | 1.6 | 12.9 | 0.03 | 0.43 | 0.03 | 89 | 1010.4 |
| 20260506101421 | 15 | 157 | 3.2 | 11.3 | 0.03 | 0.43 | 0.03 | 90 | 1010.5 |
| 20260506100523 | 16 | 156 | 1.6 | 11.3 | 0.03 | 0.43 | 0.03 | 91 | 1010.5 |
| 20260506095410 | 16 | 165 | 1.6 | 11.3 | 0.00 | 0.38 | 0.00 | 91 | 1010.5 |
| 20260506094723 | 16 | 161 | 1.6 | 11.3 | 0.00 | 0.43 | 0.00 | 91 | 1010.4 |
| 20260506093820 | 16 | 153 | 1.6 | 6.4 | 0.00 | 0.43 | 0.00 | 91 | 1010.5 |
| 20260506092923 | 16 | 156 | 0.0 | 6.4 | 0.00 | 0.43 | 0.00 | 91 | 1010.4 |
| 20260506091810 | 16 | 163 | 0.0 | 8.0 | 0.00 | 0.43 | 0.00 | 91 | 1010.4 |
| 20260506090910 | 16 | 90 | 1.6 | 3.2 | 0.00 | 0.43 | 0.00 | 93 | 1010.3 |
| 20260506090010 | 16 | 90 | 0.0 | 3.2 | 0.00 | 0.43 | 0.00 | 95 | 1010.1 |
| 20260506085322 | 16 | 172 | 0.0 | 6.4 | 0.00 | 0.43 | 0.00 | 96 | 1010.0 |
| 20260506084424 | 16 | 108 | 0.0 | 6.4 | 0.00 | 0.43 | 0.00 | 98 | 1010.0 |
| 20260506083522 | 16 | 111 | 0.0 | 6.4 | 0.00 | 0.43 | 0.00 | 99 | 1010.0 |
| 20260506082624 | 16 | 84 | 0.0 | 6.4 | 0.00 | 0.43 | 0.00 | 99 | 1010.0 |
| 20260506081721 | 15 | 110 | 0.0 | 6.4 | 0.00 | 0.43 | 0.00 | 99 | 1009.9 |
| 20260506080824 | 15 | 0 | 0.0 | 0.0 | 0.00 | 0.43 | 0.00 | 99 | 1009.9 |
| 20260506073010 | 15 | 19 | 0.0 | 4.8 | 0.00 | 0.43 | 0.00 | 99 | 1010.0 |
| 20260506072320 | 14 | 27 | 0.0 | 6.4 | 0.00 | 0.43 | 0.00 | 99 | 1010.1 |
| 20260506071210 | 14 | 32 | 0.0 | 6.4 | 0.00 | 0.43 | 0.00 | 99 | 1010.0 |
| 20260506070310 | 14 | 74 | 0.0 | 4.8 | 0.00 | 0.43 | 0.00 | 99 | 1010.2 |
| 20260506061810 | 13 | 90 | 0.0 | 1.6 | 0.00 | 0.43 | 0.00 | 99 | 1010.2 |
| 20260506060910 | 13 | 45 | 0.0 | 3.2 | 0.00 | 0.43 | 0.00 | 99 | 1010.1 |
| 20260506060221 | 13 | 28 | 0.0 | 6.4 | 0.00 | 0.43 | 0.00 | 99 | 1009.8 |
| 20260506050610 | 12 | 80 | 1.6 | 6.4 | 0.00 | 0.43 | 0.00 | 99 | 1010.4 |
| 20260506045020 | 12 | 17 | 1.6 | 9.7 | 0.00 | 0.43 | 0.00 | 99 | 1010.3 |
| 20260506044122 | 12 | 49 | 3.2 | 12.9 | 0.00 | 0.43 | 0.00 | 99 | 1010.3 |
| 20260506043220 | 12 | 15 | 1.6 | 11.3 | 0.00 | 0.43 | 0.00 | 99 | 1010.2 |
| 20260506042110 | 12 | 39 | 1.6 | 8.0 | 0.00 | 0.43 | 0.00 | 99 | 1010.0 |
| 20260506041210 | 12 | 17 | 1.6 | 8.0 | 0.00 | 0.43 | 0.00 | 99 | 1010.0 |
| 20260506040310 | 12 | 20 | 1.6 | 6.4 | 0.00 | 0.43 | 0.00 | 99 | 1010.0 |
| 20260506035624 | 12 | 7 | 1.6 | 8.0 | 0.00 | 0.43 | 0.00 | 99 | 1010.1 |
| 20260506034510 | 12 | 33 | 1.6 | 6.4 | 0.00 | 0.43 | 0.00 | 99 | 1010.3 |
| 20260506033610 | 12 | 18 | 1.6 | 6.4 | 0.00 | 0.43 | 0.00 | 99 | 1010.4 |
| 20260506032710 | 12 | 13 | 4.8 | 12.9 | 0.00 | 0.43 | 0.00 | 99 | 1010.4 |
| 20260506031810 | 12 | 10 | 1.6 | 9.7 | 0.00 | 0.43 | 0.00 | 99 | 1010.4 |
| 20260506031121 | 11 | 36 | 1.6 | 6.4 | 0.00 | 0.43 | 0.00 | 99 | 1010.5 |
| 20260506030223 | 11 | 18 | 3.2 | 8.0 | 0.00 | 0.43 | 0.00 | 99 | 1010.6 |
| 20260506025321 | 11 | 21 | 1.6 | 6.4 | 0.00 | 0.43 | 0.00 | 99 | 1010.6 |
| 20260506024423 | 11 | 3 | 1.6 | 8.0 | 0.00 | 0.43 | 0.00 | 99 | 1010.7 |
| 20260506023520 | 11 | 11 | 3.2 | 8.0 | 0.00 | 0.43 | 0.00 | 99 | 1010.7 |
| 20260506022623 | 11 | 9 | 1.6 | 6.4 | 0.00 | 0.43 | 0.00 | 99 | 1010.7 |
| 20260506021511 | 11 | 6 | 0.0 | 6.4 | 0.00 | 0.43 | 0.00 | 99 | 1011.0 |
| 20260506020822 | 12 | 0 | 0.0 | 0.0 | 0.00 | 0.43 | 0.00 | 99 | 1011.1 |
| 20260506015920 | 12 | 0 | 0.0 | 0.0 | 0.00 | 0.43 | 0.00 | 99 | 1011.1 |
| 20260506014810 | 12 | 0 | 0.0 | 0.0 | 0.00 | 0.43 | 0.00 | 99 | 1011.1 |
| 20260506013910 | 12 | 0 | 0.0 | 0.0 | 0.00 | 0.43 | 0.00 | 99 | 1011.1 |
| 20260506013010 | 12 | 335 | 0.0 | 3.2 | 0.00 | 0.43 | 0.00 | 99 | 1011.1 |
| 20260506012324 | 12 | 0 | 0.0 | 0.0 | 0.00 | 0.43 | 0.00 | 99 | 1011.2 |
| 20260506011210 | 12 | 0 | 0.0 | 0.0 | 0.00 | 0.43 | 0.00 | 99 | 1011.2 |
| 20260506010524 | 12 | 0 | 0.0 | 0.0 | 0.00 | 0.43 | 0.00 | 99 | 1011.2 |
| 20260506005621 | 12 | 45 | 0.0 | 3.2 | 0.00 | 0.43 | 0.00 | 99 | 1011.2 |
| 20260506004723 | 12 | 0 | 0.0 | 0.0 | 0.00 | 0.43 | 0.00 | 99 | 1011.4 |
| 20260506003821 | 12 | 9 | 0.0 | 6.4 | 0.00 | 0.43 | 0.00 | 99 | 1011.4 |
| 20260506002710 | 12 | 80 | 0.0 | 6.4 | 0.00 | 0.43 | 0.00 | 99 | 1011.4 |
| 20260506002020 | 12 | 8 | 1.6 | 9.7 | 0.00 | 0.43 | 0.00 | 99 | 1011.2 |
| 20260506000910 | 12 | 7 | 4.8 | 9.7 | 0.00 | 0.43 | 0.00 | 99 | 1011.2 |